Simultaneous Nadir Overpasses (SNOs) Predictions

Prediction of SNOs between AQUA and METOP-A Satellite Orbit:

Table of predicted SNOs for the next 14.0 days since TLE Epoch: 1/10/2020
Index Date (AQUA) Time (AQUA) Lat,Lon (AQUA) SZA (AQUA ) Date (METOP-A) Time (METOP-A) Lat,Lon (METOP-A) SZA (METOP-A ) Distance(km) Time Diff (sec)
1 01/13/2020 09:26:44 75.78, 27.65 97.57 01/13/2020 09:25:57 75.78, 27.67 97.57 0.76 47
2 01/13/2020 10:16:10 -75.81,-164.79 82.41 01/13/2020 10:16:38 -75.82,-164.87 82.40 2.69 28
3 01/16/2020 05:01:00 75.77, 94.13 97.06 01/16/2020 05:00:20 75.77, 93.99 97.08 3.72 40
4 01/16/2020 05:50:27 -75.84, -98.43 82.87 01/16/2020 05:51:00 -75.86, -98.39 82.86 2.77 33
5 01/19/2020 00:35:16 75.81, 160.44 96.57 01/19/2020 00:34:41 75.80, 160.46 96.57 0.79 35
6 01/19/2020 01:24:43 -75.87, -32.09 83.37 01/19/2020 01:25:22 -75.85, -32.07 83.40 2.38 39
7 01/21/2020 20:09:32 75.81,-133.12 95.98 01/21/2020 20:09:03 75.84,-133.08 96.01 3.30 29
8 01/21/2020 20:58:59 -75.86, 34.37 83.98 01/21/2020 20:59:44 -75.88, 34.40 83.96 2.58 45
9 01/24/2020 15:43:48 75.81, -66.70 95.34 01/24/2020 15:43:26 75.82, -66.77 95.36 2.16 22
10 01/24/2020 16:33:15 -75.86, 100.81 84.62 01/24/2020 16:34:07 -75.87, 100.71 84.62 2.94 52




NCC Satellite Simultaneous Nadir Overpasses (SNOs) Prediction Service
